Powrót do katalogu

KUIPER-00075

AktywnyŁącznośćVLEO
NORAD 64822·PAYLOAD·🇺🇸 United States

Wystrzelony Jul 16, 2025 z Cape Canaveral Space Force Station

Loading…

Następne Przeloty (najbliższe 24 godziny)

TLE

ŚwieżeSource: CelesTrak SupGP

Epoka: Sep 14, 2026, 15:30 UTC

1 64822C 25151G   26257.64623843  .00006811  00000+0  17473-3 0  2571
2 64822  51.8659  20.3518 0002792 216.1729  93.6247 15.38723824    10

Śledź KUIPER-00075 w czasie rzeczywistym z AllMySat

Download on the App Store